Probability
13 26 42 48 45 35 39 29 19 10 6 19 6 0 3 3 0 0 6 0 0 0 0 0 0 0 0 6 6 10 13 19 23 23 32 35 39 29
16 16 13 29 39 42 35 42 45 29 13 3 13 6 3 0 0 0 3 0 0 0 0 0 0 0 0 0 0 0 3 10 10 6 6 6 10 10
0 0 6 6 19 29 35 29 35 42 32 23 10 10 10 6 3 0 0 6 0 0 0 0 0 0 0 0 0 0 0 0 0 0 0 0 0 3
0 0 0 0 3 13 19 23 23 26 23 26 23 16 10 13 13 6 0 0 0 0 0 0 0 0 0 0 0 0 0 0 0 0 0 0 0 0
0 0 0 0 3 3 10 13 26 13 19 19 13 16 13 6 10 0 0 0 0 0 0 0 0 0 0 0 0 0 0 0 0 0 0 0 0 0
0 0 0 0 0 0 3 3 6 10 16 19 16 3 6 6 6 0 0 0 0 0 0 0 0 0 0 0 0 0 0 0 0 0 0 0 0 0
0 0 0 0 0 0 0 3 3 10 3 6 10 6 0 6 6 3 0 0 0 0 0 0 0 0 0 0 0 0 0 0 0 0 0 0 0 0
0 0 0 0 0 0 0 0 0 3 3 6 6 3 6 3 3 0 0 0 0 0 0 0 0 0 0 0 0 0 0 0 0 0 0 0 0 0
0 0 0 0 0 0 0 0 0 0 0 0 3 3 13 0 3 3 0 0 0 0 0 0 0 0 0 0 0 0 0 0 0 0 0 0 0 0
0 0 0 0 0 0 0 0 0 0 0 0 0 3 3 10 10 3 0 0 0 0 0 0 0 0 0 0 0 0 0 0 0 0 0 0 0 0
0 0 0 0 0 0 0 0 0 0 0 0 0 0 0 0 0 3 0 0 0 0 0 0 0 0 0 0 0 0 0 0 0 0 0 0 0 0
0 0 0 0 0 0 0 0 0 0 0 0 0 0 0 0 0 0 0 0 0 0 0 0 0 0 0 0 0 0 0 0 0 0 0 0 0 0
0 0 0 0 0 0 0 0 0 0 0 0 0 0 0 0 0 0 0 0 0 0 0 0 0 0 0 0 0 0 0 0 0 0 0 0 0 0
0 0 0 0 0 0 0 0 0 0 0 0 3 0 0 0 0 0 0 0 0 0 0 0 0 0 0 0 0 0 0 0 0 0 0 0 0 0
0 0 0 0 0 0 0 0 0 0 0 0 3 3 0 0 0 0 0 0 0 0 0 0 0 0 0 0 0 0 0 0 0 0 0 0 0 0
0 0 0 0 0 0 0 0 0 0 0 0 0 0 0 0 0 0 0 0 0 0 0 0 0 0 0 0 0 0 0 0 0 0 0 0 0 0
0 0 0 0 0 0 0 0 0 0 0 0 0 0 0 0 0 0 0 0 0 0 0 0 0 0 0 0 0 0 0 0 0 0 0 0 0 0
0 0 0 0 0 0 0 0 0 0 0 0 0 0 0 0 0 0 0 0 0 0 0 0 0 0 0 0 0 0 0 0 0 0 0 0 0 0
0 0 0 0 0 0 0 0 0 0 0 0 0 0 0 0 0 0 0 0 0 0 0 0 0 0 0 0 0 0 0 0 0 0 0 0 0 0
0 0 0 0 0 0 0 0 0 0 0 0 0 0 0 0 0 0 0 0 0 0 0 0 0 0 0 0 0 0 0 0 0 0 0 0 0 0
0 0 0 0 0 0 0 0 0 0 0 0 3 0 0 0 0 0 0 0 0 0 0 0 0 0 0 0 0 0 0 0 0 0 0 0 0 0
0 0 0 0 0 0 0 0 0 0 0 0 0 0 0 0 0 0 0 0 0 0 0 0 0 0 0 0 0 0 0 0 0 0 0 0 0 0
0 0 0 0 0 0 0 0 0 0 0 0 0 0 0 0 0 0 0 0 0 0 0 0 0 0 0 0 0 0 0 0 0 0 0 0 0 0
Height
5743 5748 5752 5756 5760 5765 5769 5774 5778 5782 5786 5790 5794 5798 5802 5805 5807 5810 5812 5813 5814 5815 5815 5815 5815 5816 5816 5816 5817 5818 5820 5821 5823 5826 5828 5831 5834 5837
5729 5734 5739 5743 5748 5752 5757 5762 5767 5772 5776 5781 5785 5789 5794 5797 5800 5803 5805 5806 5807 5808 5809 5809 5809 5810 5810 5810 5810 5811 5813 5814 5816 5818 5820 5823 5825 5828
5712 5717 5723 5729 5734 5739 5744 5749 5755 5761 5766 5771 5775 5780 5785 5789 5792 5795 5797 5799 5801 5802 5802 5803 5803 5803 5803 5804 5804 5805 5806 5807 5809 5811 5812 5815 5817 5820
5693 5699 5706 5712 5719 5725 5731 5736 5742 5748 5754 5760 5765 5770 5775 5780 5784 5787 5790 5792 5794 5795 5796 5796 5797 5797 5797 5797 5798 5799 5800 5800 5802 5804 5805 5807 5809 5811
5674 5681 5688 5695 5702 5708 5715 5722 5729 5735 5742 5748 5754 5759 5765 5771 5775 5779 5782 5785 5786 5788 5789 5790 5791 5791 5791 5791 5792 5792 5793 5794 5796 5797 5798 5800 5802 5804
5655 5662 5669 5677 5684 5691 5699 5707 5715 5722 5729 5735 5742 5749 5755 5761 5766 5770 5774 5777 5779 5781 5782 5784 5784 5785 5785 5785 5785 5786 5787 5788 5789 5790 5792 5793 5795 5797
5637 5644 5651 5659 5667 5675 5683 5692 5700 5707 5715 5723 5730 5737 5744 5750 5756 5761 5765 5769 5771 5773 5775 5777 5778 5779 5779 5779 5779 5780 5780 5781 5782 5784 5785 5787 5789 5791
5621 5627 5634 5641 5649 5658 5667 5676 5685 5693 5701 5709 5718 5726 5733 5740 5746 5751 5756 5761 5764 5766 5768 5770 5772 5772 5773 5773 5773 5774 5774 5775 5776 5778 5779 5781 5783 5784
5607 5613 5618 5625 5633 5642 5650 5659 5669 5678 5687 5696 5705 5714 5722 5729 5736 5742 5747 5752 5755 5758 5761 5763 5765 5766 5766 5766 5767 5767 5769 5770 5771 5772 5773 5775 5777 5778
5595 5600 5606 5612 5619 5626 5634 5643 5652 5663 5674 5684 5694 5702 5710 5717 5724 5731 5737 5742 5747 5751 5754 5756 5758 5759 5760 5761 5761 5762 5763 5764 5765 5766 5768 5769 5771 5772
5584 5590 5595 5601 5607 5614 5622 5630 5639 5648 5658 5670 5680 5689 5698 5707 5714 5721 5728 5734 5739 5743 5746 5749 5751 5752 5753 5754 5755 5756 5757 5758 5759 5761 5763 5764 5765 5767
5575 5581 5586 5592 5596 5602 5608 5616 5625 5634 5645 5656 5668 5678 5688 5696 5704 5712 5719 5725 5730 5735 5739 5741 5744 5745 5747 5748 5749 5750 5751 5752 5754 5755 5757 5758 5760 5761
5565 5572 5577 5583 5588 5593 5599 5606 5613 5621 5632 5644 5656 5667 5677 5687 5695 5703 5710 5717 5723 5728 5731 5734 5737 5739 5741 5742 5743 5744 5745 5747 5748 5750 5751 5752 5754 5756
5557 5563 5569 5575 5580 5585 5590 5596 5602 5610 5620 5632 5645 5657 5668 5678 5687 5695 5702 5708 5714 5720 5724 5727 5730 5732 5734 5736 5737 5738 5740 5741 5743 5744 5746 5747 5749 5751
5549 5556 5562 5568 5573 5578 5582 5587 5593 5601 5611 5623 5635 5647 5659 5669 5678 5686 5693 5700 5706 5712 5716 5720 5723 5725 5728 5730 5732 5733 5735 5736 5738 5739 5741 5742 5744 5746
5544 5550 5556 5561 5566 5570 5574 5580 5586 5594 5604 5615 5626 5638 5650 5660 5670 5678 5686 5694 5699 5705 5709 5713 5716 5719 5722 5724 5726 5728 5729 5731 5733 5734 5736 5738 5740 5741
5539 5545 5550 5555 5559 5563 5568 5573 5579 5587 5597 5608 5619 5630 5642 5653 5662 5671 5679 5687 5693 5699 5703 5707 5710 5713 5716 5719 5721 5723 5724 5726 5728 5730 5732 5734 5736 5737
5535 5540 5545 5549 5553 5557 5561 5566 5573 5582 5592 5602 5613 5624 5635 5646 5656 5665 5673 5680 5687 5693 5698 5702 5705 5708 5711 5714 5717 5718 5720 5722 5724 5726 5729 5731 5732 5734
5532 5536 5540 5544 5548 5551 5556 5562 5570 5578 5587 5598 5609 5619 5630 5641 5650 5659 5667 5675 5681 5687 5692 5696 5700 5704 5707 5709 5712 5714 5716 5718 5721 5723 5725 5727 5729 5731
5529 5533 5536 5540 5543 5547 5552 5559 5567 5576 5585 5596 5606 5616 5627 5637 5647 5655 5663 5670 5676 5682 5687 5691 5695 5699 5702 5705 5707 5710 5712 5715 5717 5719 5721 5723 5725 5727
5527 5530 5534 5537 5541 5545 5551 5558 5566 5575 5584 5594 5605 5615 5624 5634 5643 5651 5659 5666 5672 5677 5683 5687 5691 5695 5698 5701 5703 5706 5708 5711 5714 5716 5718 5720 5721 5723
5526 5529 5532 5536 5540 5545 5551 5558 5567 5576 5585 5595 5604 5614 5624 5632 5641 5649 5656 5662 5668 5673 5678 5683 5687 5690 5693 5697 5699 5702 5705 5708 5710 5712 5714 5716 5717 5718
5527 5530 5533 5537 5542 5547 5553 5561 5569 5578 5587 5597 5606 5615 5624 5632 5640 5647 5653 5659 5664 5670 5675 5679 5683 5687 5690 5693 5696 5699 5702 5704 5706 5708 5710 5711 5712 5712
Wind_Speed
50 48 47 45 45 44 44 43 43 42 41 39 37 35 32 29 27 25 23 22 22 21 22 22 21 22 23 25 27 28 30 31 32 33 35 35 37 39
56 54 52 51 49 47 47 47 46 45 44 42 40 37 35 32 29 27 25 24 22 22 22 22 22 22 23 24 25 26 28 30 31 32 34 35 36 37
64 61 58 55 54 52 50 50 49 48 46 45 43 40 37 35 32 29 27 26 24 23 23 23 22 22 23 23 23 25 26 28 29 31 32 34 35 35
70 69 66 63 59 57 55 54 52 51 50 48 46 44 40 37 34 31 29 27 25 24 24 23 23 23 23 23 24 25 26 27 28 29 30 32 33 34
72 72 72 70 67 64 60 58 56 54 52 51 49 47 43 40 37 34 31 29 27 25 24 24 24 23 23 24 24 25 26 26 27 28 28 29 30 31
69 71 73 73 72 69 64 61 59 58 55 53 51 49 46 42 39 36 34 31 29 27 25 25 24 24 24 24 24 25 25 26 26 27 27 27 26 26
63 67 70 72 73 72 69 66 64 62 59 57 53 51 48 45 42 39 36 33 31 28 26 26 25 25 25 24 24 25 25 25 26 26 26 25 25 25
56 60 64 68 71 72 72 69 67 63 62 59 56 53 50 47 44 41 38 35 32 30 28 27 26 25 25 24 24 23 24 24 24 24 25 25 25 25
50 52 56 61 66 69 71 71 69 66 63 61 58 55 52 49 47 43 40 37 34 30 29 27 26 25 25 24 23 22 23 23 23 23 23 24 24 24
45 45 47 51 56 61 65 68 70 69 65 61 57 55 52 50 48 45 41 37 35 31 29 28 27 26 25 24 23 22 22 22 22 22 22 22 23 22
41 40 40 42 46 50 56 61 64 66 67 63 60 55 53 50 47 45 43 39 35 32 30 29 27 26 25 23 23 22 22 22 21 21 21 22 22 22
39 38 37 37 38 40 44 50 55 58 62 62 58 56 53 49 46 44 42 39 36 33 31 29 27 26 25 23 23 22 22 22 22 22 22 22 22 22
37 36 35 35 34 35 37 41 46 50 55 57 56 53 51 49 46 42 41 39 36 34 31 29 28 26 25 23 22 22 21 21 21 21 21 21 21 21
36 35 34 33 33 32 33 36 40 44 49 52 52 52 50 47 45 42 39 38 36 33 31 30 28 27 25 24 23 22 21 20 20 20 20 20 20 20
34 34 32 31 31 31 31 34 37 41 45 48 49 48 47 45 44 42 39 37 35 33 31 30 28 27 25 24 23 22 21 20 20 19 19 19 19 19
31 31 30 30 29 29 29 32 35 38 42 46 47 46 45 45 43 41 39 37 35 33 31 29 28 26 25 24 23 22 20 20 19 19 18 19 18 17
28 28 27 28 28 28 28 31 34 38 41 44 46 45 45 44 43 41 39 37 34 32 30 28 26 25 24 23 22 21 20 19 18 17 17 17 17 16
25 25 26 26 27 27 28 30 35 38 39 42 44 44 44 44 42 40 37 35 34 32 30 28 26 25 24 23 22 21 19 19 18 17 17 16 16 16
22 23 24 25 25 26 28 31 36 38 39 41 42 44 43 42 40 38 36 34 33 31 30 28 27 26 25 23 22 20 20 20 19 18 17 16 16 16
20 21 21 22 23 25 29 34 37 39 39 40 41 42 42 40 39 36 35 33 32 31 30 28 27 26 24 23 22 21 20 20 19 18 18 17 17 17
18 18 18 19 22 25 31 35 37 38 37 40 40 40 40 38 36 34 33 32 31 31 29 28 26 24 23 22 21 20 19 19 19 18 18 18 18 18
15 16 16 18 21 27 31 33 36 37 38 39 39 37 36 35 34 33 32 31 30 28 27 26 25 24 23 21 20 19 19 19 19 18 18 19 19 20
15 16 16 18 23 28 31 34 36 36 36 37 36 35 33 32 31 30 29 28 27 26 25 25 24 23 22 21 20 19 19 19 19 19 20 20 22 23
Wind_Direction
240 239 239 238 238 237 236 235 234 234 235 235 235 236 238 241 244 250 256 261 265 270 273 276 277 274 267 263 260 256 252 250 248 246 243 242 243 242
238 238 238 239 239 237 236 235 235 235 235 235 236 236 237 239 242 247 253 258 263 269 272 273 275 275 271 267 261 256 254 251 248 248 246 245 244 243
238 237 237 238 238 237 237 236 235 235 235 235 236 237 237 238 240 245 250 255 260 266 270 271 273 275 273 269 263 257 254 252 250 249 248 246 246 246
238 237 237 237 237 238 237 236 236 235 235 235 236 237 237 238 239 242 246 251 257 263 267 268 271 274 273 269 264 259 256 254 251 250 250 249 248 247
239 238 238 237 236 237 237 237 236 236 235 234 235 236 236 237 239 241 244 248 253 259 263 265 268 271 272 269 264 260 257 255 252 250 251 253 251 248
239 238 238 238 238 238 237 237 236 235 235 234 233 234 235 236 238 239 242 246 250 255 260 263 267 270 271 268 263 260 258 256 254 251 250 251 251 251
240 238 238 238 238 237 237 236 236 235 235 234 233 232 233 235 236 237 240 243 247 252 257 260 264 268 269 267 264 261 258 256 254 251 250 252 252 252
240 239 238 237 238 237 237 236 236 236 236 235 234 233 232 234 235 236 238 240 243 248 253 258 262 266 267 266 263 260 257 254 254 252 250 251 252 252
240 239 239 238 238 238 238 237 236 236 236 236 234 233 232 232 233 234 235 237 239 244 250 255 259 264 265 263 261 258 255 254 252 251 252 254 254 253
238 239 240 240 239 239 238 238 238 237 236 235 233 233 232 231 231 231 233 236 237 241 247 252 256 261 262 260 259 257 255 253 250 249 253 256 257 256
234 236 237 239 239 239 238 238 238 238 237 235 234 233 234 232 231 230 231 234 236 239 244 249 253 258 259 258 256 256 255 253 251 251 254 256 255 255
230 232 233 235 237 236 236 236 235 235 235 235 233 231 231 231 230 230 230 231 234 238 242 247 251 254 254 254 254 254 253 253 252 252 253 255 254 253
226 229 231 233 234 234 234 232 229 229 229 228 227 226 227 228 228 228 228 229 232 235 239 244 248 249 250 251 252 251 250 250 250 251 251 251 249 251
223 225 228 231 232 233 232 228 223 222 222 221 221 222 223 224 225 225 224 226 229 232 236 240 244 245 246 248 250 248 247 248 247 248 248 247 244 245
219 222 225 229 230 231 231 225 220 216 214 213 214 216 217 218 220 220 221 223 227 230 233 237 240 241 243 245 246 247 247 248 246 244 245 246 245 245
217 221 224 226 227 229 229 224 217 210 206 205 206 209 212 214 215 216 217 220 223 227 230 234 237 239 240 240 242 244 244 244 242 241 242 243 241 240
214 218 221 222 224 225 225 220 211 202 200 200 200 202 206 209 210 210 213 216 220 224 226 230 233 235 236 236 237 239 238 236 235 236 237 237 235 235
209 215 218 221 223 222 216 209 200 194 194 194 195 196 200 203 205 205 208 212 216 220 223 225 227 230 232 233 236 235 232 231 232 233 234 233 233 234
208 214 218 220 220 214 205 199 194 189 189 189 191 193 195 198 200 202 206 211 214 217 219 221 224 227 229 229 229 229 229 229 230 229 229 229 231 234
206 212 215 216 212 203 196 191 186 182 182 185 187 189 190 193 197 201 205 208 211 213 216 220 222 224 226 227 227 227 225 225 225 226 228 230 233 236
203 208 210 208 201 195 190 185 180 178 179 181 184 187 188 191 194 199 202 205 208 210 214 218 220 222 223 224 223 222 222 222 223 226 231 235 238 243
196 197 196 195 189 183 180 177 174 174 176 178 180 182 185 189 193 197 199 203 207 210 212 215 217 218 219 218 218 219 221 224 225 230 236 241 246 252
180 178 178 177 174 172 170 168 167 170 172 173 175 178 183 187 190 193 198 203 206 208 210 212 214 216 216 215 217 220 225 229 232 237 243 249 256 262